Location: Aalen
(48.8330°N, 10.1000°E)
Time: 20:01:50
(UTC+02:00)

UNISAT 6 - Pass Details

Date: 03 April 2023
Orbit: 599 x 680 km, 97.7° (Epoch: 04 June)

Event Time Altitude Azimuth Distance (km) Brightness Sun altitude
Rises 04:48:03 0° 127° (SE) 2,941 ? -20.0°
Reaches altitude 10° 04:50:37 10° 112° (ESE) 2,052 ? -19.7°
Maximum altitude 04:54:04 22° 62° (ENE) 1,428 ? -19.2°
Drops below altitude 10° 04:57:34 10° 12° (NNE) 2,100 ? -18.7°
Sets 05:00:13 0° 358° (N) 3,030 ? -18.3°
